Tracking 25710 objects as of 6-Jul-2022
HD Live streaming from Space Station
objects crossing your sky now

FENGYUN 1C DEB

Track FENGYUN 1C DEB now!
10-day predictions


NORAD ID: 30464
Int'l Code: 1999-025AGB
Perigee: 788.3 km
Apogee: 947.5 km
Inclination: 99.0 °
Period: 102.2 minutes
Semi major axis: 7238 km
RCS: 0.029 m2 (small)
Launch date: May 10, 1999
Source: People's Republic of China (PRC)
Launch site: Taiyaun Space Center, China (TSC)

Note: This is SATELLITE DEBRIS
aabbcc
Your satellite tracking list
Your tracking list is empty




NASA's NSSDC Master Catalog

Two Line Element Set (TLE):
1 30464U 99025AGB 22186.37802294 -.00000041  00000-0  19863-5 0  9994
2 30464  99.0173 230.3512 0109956 195.2708 232.3020 14.09584025793601
Source of the keplerian elements: AFSPC